Starlink 32075

operational
NORAD ID: 60345 Int'l Des: 2024-136 Owner: SPXS Country: US Constellation: starlink
LEOCIRCULAR

About Starlink 32075

Description loading...

Live Position

Loading 3D Globe...

Upcoming Passes

Altitude History

Altitude vs Time

uPlot chart will show altitude changes over time

Two-Line Element Set

1 60345U 24136S 26101.91379205 .00000456 00000-0 27512-4 0 9996
2 60345 53.1601 281.1728 0001104 75.5325 284.5798 15.30196852 94756
Epoch: Apr 11, 2026 • Age: 8 hours

Current Status

Altitude 477.3 km
Velocity 7.63 km/s
Sub-Earth Point 34.38°N, 133.07°E
Launch Date Aug 2, 2024
Age 1.6 years
Type internet

Technical Details

Classification Payload
Mass 730.00 kg
Dry Mass 700.00 kg
Total Mass 730.00 kg
Length 0.30 m
Diameter 4.10 m
Span 29.00 m
Shape Box + pan
Manufacturer SPXS
Bus Type Starlink V2M
Phase Status In Orbit
Owner/State SPXS/US

Large Constellations

Loading constellations...